Change the Weather History Date:

Wednesday, January 14, 2015

  Actual Average Record
Temperature  
Mean Temperature 73 °F 65 °F  
Max Temperature 78 °F 74 °F 86 °F (1912)
Min Temperature 67 °F 57 °F 31 °F (1922)
Degree Days  
Heating Degree Days 0 3  
Month to date heating degree days 1 42  
Since 1 July heating degree days 43 113  
Cooling Degree Days 8 3  
Month to date cooling degree days 127 49  
Year to date cooling degree days 127 49  
Growing Degree Days 22 (Base 50)    
Moisture  
Dew Point 65 °F    
Average Humidity 83    
Maximum Humidity 97    
Minimum Humidity 69    
Precipitation  
Precipitation T in 0.10 in 3.28 in (1974)
Month to date precipitation 0.71 1.52  
Year to date precipitation 0.71 1.52  
Snow  
Snow 0.00 in - - ()
Month to date snowfall 0.0  
Since 1 July snowfall 0.0  
Snow Depth 0.00 in    
Sea Level Pressure  
Sea Level Pressure 30.05 in    
Wind  
Wind Speed 11 mph (NNW)    
Max Wind Speed 17 mph    
Max Gust Speed 22 mph    
Visibility 7 miles    
Events Fog    
T = Trace of Precipitation, MM = Missing Value Source: NWS Daily Summary

Daily Weather History Graph

Daily Weather History Graph

Search for Another Location

Airport or City:

Trip Planner

Search our weather history database for the weather conditions in past years. The results will help you decide how hot, cold, wet, or windy it might be!

Date:

Astronomy

Jan. 14, 2015 Rise Set
Actual Time 7:10 AM EST 5:48 PM EST
Civil Twilight 6:45 AM EST 6:13 PM EST
Nautical Twilight 6:17 AM EST 6:42 PM EST
Astronomical Twilight 5:48 AM EST 7:10 PM EST
Moon 1:16 AM EST (1/14) 12:49 PM EST (1/14)
Length of Visible Light 11h 28m
Length of Day
10h 38m
Last Quarter, 37% of the Moon is Illuminated
Jan 14
Last Quarter
Jan 20
New
Jan 26
First Quarter
Feb 3
Full
Feb 11
Last Quarter

Hourly Weather History & Observations

Time (EST) Temp. Dew Point Humidity Pressure Visibility Wind Dir Wind Speed Gust Speed Precip Events Conditions
12:04 AM 71.1 °F 68.0 °F 90% 30.05 in 3.0 mi North 6.9 mph - N/A   Overcast
12:53 AM 71.1 °F 69.1 °F 93% 30.04 in 5.0 mi North 8.1 mph - N/A   Overcast
1:53 AM 70.0 °F 68.0 °F 93% 30.04 in 5.0 mi North 6.9 mph - N/A   Overcast
2:53 AM 70.0 °F 68.0 °F 93% 30.02 in 5.0 mi NNW 9.2 mph - N/A   Overcast
3:15 AM 69.1 °F 68.0 °F 96% 30.02 in 2.0 mi North 9.2 mph - N/A   Overcast
3:21 AM 69.1 °F 68.0 °F 96% 30.02 in 0.2 mi NNW 9.2 mph - N/A   Overcast
3:53 AM 69.1 °F 66.0 °F 90% 30.01 in 0.2 mi NNW 9.2 mph - N/A   Overcast
4:53 AM 69.1 °F 66.0 °F 90% 30.02 in 0.2 mi NNW 9.2 mph - N/A Fog Fog
5:46 AM 69.1 °F 66.0 °F 90% 30.03 in 1.0 mi NNW 11.5 mph - N/A   Overcast
5:53 AM 69.1 °F 66.0 °F 90% 30.04 in 1.0 mi North 10.4 mph - N/A   Overcast
6:35 AM 69.1 °F 66.0 °F 90% 30.05 in 2.0 mi NNW 9.2 mph - 0.00 in   Overcast
6:53 AM 68.7 °F 66.2 °F 92% 30.05 in 2.0 mi North 8.1 mph - 0.00 in   Overcast
7:53 AM 69.1 °F 66.0 °F 90% 30.07 in 2.5 mi NNW 12.7 mph - N/A   Overcast
8:17 AM 68.7 °F 65.1 °F 88% 30.07 in 3.0 mi North 9.2 mph - N/A   Overcast
8:53 AM 70.0 °F 64.0 °F 81% 30.08 in 7.0 mi North 6.9 mph - N/A   Overcast
9:31 AM 70.0 °F 64.9 °F 84% 30.09 in 7.0 mi North 9.2 mph - N/A   Overcast
9:53 AM 70.5 °F 64.9 °F 82% 30.09 in 10.0 mi North 9.2 mph - N/A   Overcast
10:53 AM 72.0 °F 66.0 °F 81% 30.08 in 10.0 mi North 12.7 mph - N/A   Overcast
11:09 AM 72.0 °F 64.9 °F 78% 30.08 in 10.0 mi NNW 13.8 mph - N/A   Overcast
11:43 AM 72.0 °F 64.0 °F 76% 30.07 in 10.0 mi NNW 15.0 mph - N/A   Overcast
11:53 AM 72.0 °F 64.0 °F 76% 30.07 in 10.0 mi NNW 15.0 mph - N/A   Overcast
12:49 PM 71.6 °F 64.4 °F 78% 30.04 in 10.0 mi North 11.5 mph - N/A   Overcast
12:53 PM 73.0 °F 64.9 °F 76% 30.04 in 10.0 mi North 10.4 mph - N/A   Overcast
1:43 PM 75.9 °F 66.0 °F 71% 30.01 in 10.0 mi North 12.7 mph - N/A   Mostly Cloudy
1:53 PM 75.9 °F 66.0 °F 71% 30.01 in 10.0 mi North 11.5 mph - N/A   Mostly Cloudy
2:53 PM 77.0 °F 66.0 °F 69% 30.00 in 10.0 mi North 11.5 mph - N/A   Mostly Cloudy
3:53 PM 75.9 °F 66.0 °F 71% 30.01 in 10.0 mi North 12.7 mph - N/A   Mostly Cloudy
4:53 PM 73.9 °F 64.9 °F 73% 30.03 in 10.0 mi North 10.4 mph - N/A   Mostly Cloudy
5:53 PM 70.0 °F 63.0 °F 78% 30.05 in 10.0 mi North 16.1 mph - N/A   Mostly Cloudy
6:53 PM 69.1 °F 63.0 °F 81% 30.06 in 10.0 mi North 13.8 mph - N/A   Overcast
7:53 PM 69.1 °F 63.0 °F 81% 30.07 in 10.0 mi NNW 11.5 mph - N/A   Overcast
8:23 PM 68.0 °F 62.1 °F 81% 30.07 in 10.0 mi NNW 11.5 mph - N/A   Overcast
8:53 PM 66.9 °F 62.1 °F 84% 30.07 in 10.0 mi NNW 9.2 mph - N/A   Mostly Cloudy
9:53 PM 66.9 °F 62.1 °F 84% 30.07 in 10.0 mi North 10.4 mph - N/A   Overcast
10:53 PM 66.9 °F 62.1 °F 84% 30.07 in 10.0 mi NNW 9.2 mph - N/A   Overcast
11:53 PM 66.9 °F 63.0 °F 87% 30.05 in 10.0 mi NNW 8.1 mph - N/A   Overcast